Tracking 29892 objects as of 21-Nov-2024
HD Live streaming from Space Station
objects crossing your sky now

STARLINK-4595

Track STARLINK-4595 now!
10-day predictions
STARLINK-4595 is classified as:


NORAD ID: 53627
Int'l Code: 2022-104AR
Perigee: 545.9 km
Apogee: 547.9 km
Inclination: 53.2 °
Period: 95.4 minutes
Semi major axis: 6917 km
RCS: Unknown
Launch date: August 28, 2022
Source: United States (US)
Launch site: AIR FORCE EASTERN TEST RANGE (AFETR)
Your satellite tracking list
Your tracking list is empty




NASA's NSSDC Master Catalog

Two Line Element Set (TLE):
1 53627U 22104AR  24325.04428396  .00000549  00000-0  52578-4 0  9993
2 53627  53.2178 204.6089 0001440 104.0197 256.0956 15.08838060124101
Source of the keplerian elements: AFSPC